Tracking 28790 objects as of 19-Apr-2024
HD Live streaming from Space Station
objects crossing your sky now

USA 40 R/B DEB

Track USA 40 R/B DEB now!
10-day predictions


NORAD ID: 23388
Int'l Code: 1989-061BL
Perigee: 497.5 km
Apogee: 5,204.5 km
Inclination: 57.0 °
Period: 146.9 minutes
Semi major axis: 9222 km
RCS: Unknown
Launch date: August 8, 1989
Source: United States (US)
Launch site: AIR FORCE EASTERN TEST RANGE (AFETR)

Note: This is SATELLITE DEBRIS
Your satellite tracking list
Your tracking list is empty




NASA's NSSDC Master Catalog

Two Line Element Set (TLE):
1 23388U 89061BL  24106.75550973  .00042466  00000-0  21647-1 0  9995
2 23388  56.9864   9.4629 2552038 330.7905  17.1098  9.80309683  3124
Source of the keplerian elements: AFSPC